DW0326 Weather Reports


Display with metric or nautical units.
time (UTC)temp
F
wind
direction
speed
MPH
gust
MPH
rain 1hr
in
rain 24hr
in
rain mn
in
humidity
%
barometer
mb
20260902043652 82 0 0.0 0.0 0.00 0.00 0.00 83 1009.5
20260902042753 82 0 0.0 0.0 0.00 0.00 0.00 83 1009.4
20260902041852 82 0 0.0 0.0 0.00 0.00 0.00 84 1009.5
20260902040952 82 0 0.0 0.0 0.00 0.00 0.00 84 1009.5
20260902040052 82 259 1.0 6.0 0.00 0.00 0.00 84 1009.5
20260902035153 81 255 0.0 4.0 0.00 0.00 0.00 85 1009.5
20260902034253 81 252 0.0 4.0 0.00 0.00 0.00 85 1009.6
20260902032453 81 0 0.0 0.0 0.00 0.00 0.00 85 1009.6
20260902031553 81 0 0.0 0.0 0.00 0.00 0.00 85 1009.3
20260902030652 81 0 0.0 0.0 0.00 0.00 0.00 85 1009.3
20260902025753 81 0 0.0 0.0 0.00 0.00 0.00 84 1009.1
20260902024852 81 0 0.0 0.0 0.00 0.00 0.00 85 1009.0
20260902023952 81 0 0.0 0.0 0.00 0.00 0.00 85 1009.0
20260902022152 81 0 0.0 0.0 0.00 0.00 0.00 85 1008.6
20260902020352 82 0 0.0 0.0 0.00 0.00 0.00 86 1008.4
20260902014553 81 0 0.0 0.0 0.00 0.00 0.00 86 1008.0
20260902013652 82 0 0.0 0.0 0.00 0.00 0.00 86 1008.0
20260902012752 82 0 0.0 0.0 0.00 0.00 0.00 86 1008.0
20260902011852 82 0 0.0 0.0 0.00 0.00 0.00 86 1008.0
20260902010952 82 0 0.0 0.0 0.00 0.00 0.00 85 1008.0
20260902010052 82 0 0.0 0.0 0.00 0.00 0.00 86 1008.0
20260902005152 82 0 0.0 0.0 0.00 0.00 0.00 86 1008.0
20260902004253 82 0 0.0 0.0 0.00 0.00 0.00 87 1008.1
20260902003353 82 0 0.0 0.0 0.00 0.00 0.00 87 1008.2
20260902002452 82 0 0.0 0.0 0.00 0.00 0.00 87 1008.2
20260902001552 83 0 0.0 0.0 0.00 0.00 0.00 87 1008.1
20260902000652 83 0 0.0 0.0 0.00 0.00 0.00 87 1008.1
20260901235752 83 7 1.0 9.0 0.00 0.00 0.00 87 1008.1
20260901233952 83 0 0.0 0.0 0.00 0.00 0.00 88 1008.2
20260901232152 83 29 1.0 4.0 0.00 0.00 0.00 88 1008.3
20260901231253 84 23 2.0 7.0 0.00 0.00 0.00 87 1008.6
20260901230352 84 26 2.0 14.0 0.00 0.00 0.00 87 1008.7
20260901225452 85 40 1.0 6.0 0.00 0.00 0.00 88 1008.7
20260901224552 85 21 2.0 10.0 0.00 0.00 0.00 88 1008.7
20260901223652 85 0 0.0 0.0 0.00 0.00 0.00 88 1008.7
20260901222752 86 0 0.0 0.0 0.00 0.00 0.00 87 1008.6
20260901221853 86 0 0.0 0.0 0.00 0.00 0.00 86 1008.6
20260901220952 86 0 0.0 0.0 0.00 0.00 0.00 83 1008.6
20260901220052 87 15 1.0 8.0 0.00 0.00 0.00 82 1008.9
20260901215153 87 11 0.0 7.0 0.00 0.00 0.00 82 1008.9
20260901214252 86 0 0.0 0.0 0.00 0.00 0.00 82 1009.1
20260901213352 86 0 0.0 0.0 0.00 0.00 0.00 82 1009.1
20260901211552 86 0 0.0 0.0 0.00 0.00 0.00 84 1009.0
20260901210652 85 0 0.0 0.0 0.00 0.00 0.00 85 1009.0
20260901205752 85 0 0.0 0.0 0.00 0.00 0.00 84 1008.8
20260901204852 85 0 0.0 0.0 0.00 0.00 0.00 85 1008.6
20260901203952 85 0 0.0 0.0 0.00 0.00 0.00 83 1008.6
20260901203052 85 0 0.0 0.0 0.00 0.00 0.00 87 1009.1
20260901202152 85 0 0.0 0.0 0.00 0.00 0.00 87 1009.1
20260901201252 85 0 0.0 0.0 0.00 0.00 0.00 87 1009.5
20260901200352 85 0 0.0 0.0 0.00 0.00 0.00 87 1010.1
20260901195452 86 0 0.0 0.0 0.00 0.00 0.00 86 1010.1
20260901194552 86 0 0.0 0.0 0.00 0.00 0.00 85 1010.1
20260901193652 86 0 0.0 0.0 0.00 0.00 0.00 83 1010.1
20260901192752 86 0 0.0 0.0 0.00 0.00 0.00 81 1010.1
20260901191852 86 0 0.0 0.0 0.00 0.00 0.00 81 1010.1
20260901190052 86 0 0.0 0.0 0.00 0.00 0.00 80 1010.1
20260901183352 86 0 0.0 0.0 0.00 0.00 0.00 82 1010.4
20260901182452 86 0 0.0 0.0 0.00 0.00 0.00 81 1010.4
20260901181552 86 0 0.0 0.0 0.00 0.00 0.00 82 1010.6
20260901180652 86 0 0.0 0.0 0.00 0.00 0.00 85 1010.6
20260901175752 86 0 0.0 0.0 0.00 0.00 0.00 85 1010.9
20260901173952 87 0 0.0 0.0 0.00 0.00 0.00 85 1011.2
20260901173052 87 0 0.0 0.0 0.00 0.00 0.00 84 1011.4
20260901170352 87 19 0.0 6.0 0.00 0.00 0.00 80 1011.8
20260901164552 87 22 0.0 5.0 0.00 0.00 0.00 80 1011.8
20260901162752 86 17 1.0 7.0 0.00 0.00 0.00 79 1011.8
20260901161852 86 6 0.0 5.0 0.00 0.00 0.00 80 1011.7
20260901160052 87 0 0.0 0.0 0.00 0.00 0.00 80 1011.5
20260901155152 86 0 0.0 0.0 0.00 0.00 0.00 83 1011.5
20260901152452 85 2 1.0 6.0 0.00 0.00 0.00 85 1011.5
20260901151552 85 2 1.0 5.0 0.00 0.00 0.00 85 1011.7
20260901150651 84 15 0.0 4.0 0.00 0.00 0.00 86 1011.7
20260901145752 84 14 1.0 6.0 0.00 0.00 0.00 86 1011.6
20260901144852 84 4 1.0 6.0 0.00 0.00 0.00 87 1011.5
20260901143951 84 359 0.0 5.0 0.00 0.00 0.00 87 1011.5
20260901143051 84 0 0.0 0.0 0.00 0.00 0.00 88 1011.7
20260901142152 83 0 0.0 0.0 0.00 0.00 0.00 87 1011.7
20260901141252 83 0 0.0 0.0 0.00 0.00 0.00 88 1011.7
20260901140352 83 32 1.0 5.0 0.00 0.00 0.00 89 1011.7
20260901135451 83 0 0.0 0.0 0.00 0.00 0.00 90 1011.7
20260901134552 82 0 0.0 0.0 0.00 0.00 0.00 91 1011.7
20260901133652 82 0 0.0 0.0 0.00 0.00 0.00 93 1011.7
20260901132752 81 0 0.0 0.0 0.00 0.00 0.00 95 1011.7
20260901131851 81 0 0.0 0.0 0.00 0.00 0.00 95 1011.3
20260901130952 80 0 0.0 0.0 0.00 0.00 0.00 94 1011.3
20260901124019 80 0 0.0 0.0 0.00 0.00 0.00 96 1010.9
20260901123119 80 0 0.0 0.0 0.00 0.00 0.00 95 1010.7
20260901122219 80 0 0.0 0.0 0.00 0.00 0.00 95 1010.7
20260901121320 80 0 0.0 0.0 0.00 0.00 0.00 95 1010.7
20260901114619 80 0 0.0 0.0 0.00 0.00 0.00 94 1010.6
20260901113719 80 0 0.0 0.0 0.00 0.00 0.00 94 1010.6
20260901112819 80 0 0.0 0.0 0.00 0.00 0.00 94 1010.6
20260901111920 80 0 0.0 0.0 0.00 0.00 0.00 94 1010.5
20260901111019 80 0 0.0 0.0 0.00 0.00 0.00 94 1010.5
20260901104320 80 0 0.0 0.0 0.00 0.00 0.00 93 1010.3
20260901103419 80 0 0.0 0.0 0.00 0.00 0.00 93 1010.2
20260901102519 80 0 0.0 0.0 0.00 0.00 0.00 93 1010.2
20260901101619 80 0 0.0 0.0 0.00 0.00 0.00 93 1010.3
20260901100719 80 0 0.0 0.0 0.00 0.00 0.00 92 1010.3
20260901095819 80 0 0.0 0.0 0.00 0.00 0.00 93 1010.3
20260901093119 81 0 0.0 0.0 0.00 0.00 0.00 92 1010.5
20260901092219 81 0 0.0 0.0 0.00 0.00 0.00 92 1010.5
20260901091319 81 0 0.0 0.0 0.00 0.00 0.00 91 1010.6
20260901090419 81 0 0.0 0.0 0.00 0.00 0.00 91 1010.6
20260901084619 81 0 0.0 0.0 0.00 0.00 0.00 91 1010.5
20260901083719 81 0 0.0 0.0 0.00 0.00 0.00 92 1010.5
20260901082819 81 0 0.0 0.0 0.00 0.00 0.00 92 1010.5
20260901081919 81 0 0.0 0.0 0.00 0.00 0.00 92 1010.5
20260901081019 81 0 0.0 0.0 0.00 0.00 0.00 92 1010.5
20260901074320 81 0 0.0 0.0 0.00 0.00 0.00 91 1010.6
20260901073419 81 0 0.0 0.0 0.00 0.00 0.00 91 1010.6
20260901072519 81 0 0.0 0.0 0.00 0.00 0.00 91 1010.6
20260901071620 81 0 0.0 0.0 0.00 0.00 0.00 90 1010.7
20260901070719 81 0 0.0 0.0 0.00 0.00 0.00 90 1010.7
20260901065819 82 0 0.0 0.0 0.00 0.00 0.00 90 1010.9
20260901064920 82 0 0.0 0.0 0.00 0.00 0.00 89 1010.8
20260901063119 82 0 0.0 0.0 0.00 0.00 0.00 89 1010.9
20260901061319 82 0 0.0 0.0 0.00 0.00 0.00 88 1011.0
20260901060419 83 0 0.0 0.0 0.00 0.00 0.00 88 1011.0
20260901055519 83 0 0.0 0.0 0.00 0.00 0.00 88 1011.0
20260901052819 84 0 0.0 0.0 0.00 0.00 0.00 86 1010.8
20260901051919 84 0 0.0 0.0 0.00 0.00 0.00 86 1010.7
20260901051019 84 0 0.0 0.0 0.00 0.00 0.00 85 1010.7
20260901050118 84 0 0.0 0.0 0.00 0.00 0.00 85 1010.6